STARLINK-33568 (62779 NORAD) Tracking and Keplerian Element Data

This shows tracking and keplerian element data for the satellite.

Feedback or suggestion? Click here.




ElementValue
Catalog62779
NameSTARLINK-33568
Epoch Orbit5215
Epoch Day354.21713485
Epoch Year2025
RAAN331.5887
Inclination53.1605
Eccentricity0.0001533
Argument of Perigee95.2263
Mean Anonmoly264.8913
Mean Motion15.30221204
Decay Rate0.00063363
L11 62779U 25015X 25354.21713485 .00063363 00000+0 21319-2 0 9992
L22 62779 53.1605 331.5887 0001533 95.2263 264.8913 15.30221204 52153



Live tracking and technical data element details for STARLINK-33568 (NORAD 62779). STARLINK-33568 can be tracked NOW for your location showing map with azimuth and elevation plus other details from your city location.







IsCatalogInMostPopularTable: catalog: 62779, numindb: 250
Update: records affected: 1



GetName: 62779 STARLINK-33568

Hit Count: updated at: Sat, 07 Mar 2026 02:33:14 GMT